RWZ389 UUBW-UWPS

Flight info

Callsign RWZ389
Flight time N/A
Altitude 31000
Route TOGMO2B TOGMO M56 ABAGI T662 PILEN PILEN2K
Aircraft SU95/M-SDE3GILORVW/S

Departure

Time N/A
Airport Zhukovsky International Airport (UUBW)

Arrival

Time 2026-04-27 18:59
Airport Saransk International Airport (UWPS)
Time Latitude Longitude Altitude Speed Heading
2026-04-27 18:51 54.39575 45.39847 2086 ft 168 kts 221°
2026-04-27 18:52 54.38535 45.38938 2093 ft 171 kts 199°
2026-04-27 18:52 54.37383 45.38416 2090 ft 171 kts 198°
2026-04-27 18:52 54.36296 45.37928 2082 ft 153 kts 199°
2026-04-27 18:53 54.34239 45.36994 2091 ft 153 kts 199°
2026-04-27 18:53 54.33199 45.36520 2091 ft 153 kts 199°
2026-04-27 18:53 54.32171 45.36048 2092 ft 153 kts 199°
2026-04-27 18:53 54.31142 45.35577 2083 ft 153 kts 199°
2026-04-27 18:54 54.30110 45.35107 2089 ft 154 kts 199°
2026-04-27 18:54 54.29087 45.34640 2104 ft 154 kts 199°
2026-04-27 18:54 54.28055 45.34168 2106 ft 153 kts 199°
2026-04-27 18:54 54.27021 45.33695 2085 ft 154 kts 199°
2026-04-27 18:55 54.25988 45.33222 2099 ft 154 kts 199°
2026-04-27 18:55 54.24985 45.32770 2082 ft 139 kts 199°
2026-04-27 18:55 54.24125 45.32394 2102 ft 123 kts 200°
2026-04-27 18:55 54.23287 45.32011 2091 ft 123 kts 200°
2026-04-27 18:56 54.22461 45.31629 2084 ft 123 kts 201°
2026-04-27 18:56 54.21930 45.31333 2100 ft 121 kts 205°
2026-04-27 18:57 54.19661 45.29163 2094 ft 121 kts 215°
2026-04-27 18:57 54.18955 45.28381 2023 ft 122 kts 215°
2026-04-27 18:57 54.18248 45.27599 1830 ft 120 kts 214°
2026-04-27 18:57 54.17541 45.26814 1652 ft 121 kts 214°
2026-04-27 18:58 54.16813 45.26008 1467 ft 128 kts 214°
2026-04-27 18:58 54.16077 45.25196 1285 ft 125 kts 212°
2026-04-27 18:58 54.15349 45.24388 1115 ft 125 kts 212°
2026-04-27 18:58 54.14608 45.23572 948 ft 130 kts 212°
2026-04-27 18:59 54.13835 45.22714 770 ft 131 kts 211°
2026-04-27 18:59 54.13088 45.21895 644 ft 120 kts 211°
2026-04-27 18:59 54.12495 45.21241 644 ft 66 kts 213°
2026-04-27 18:59 54.12342 45.21087 640 ft 8 kts 206°
2026-04-27 19:00 54.12334 45.21063 643 ft 0 kts 288°
2026-04-27 19:00 54.12337 45.21058 642 ft 0 kts 321°
2026-04-27 19:00 54.12356 45.21053 640 ft 0 kts 18°
2026-04-27 19:00 54.12375 45.21086 642 ft 9 kts 49°
2026-04-27 19:01 54.12456 45.21195 648 ft 17 kts 32°
2026-04-27 19:01 54.12558 45.21317 644 ft 19 kts 35°
2026-04-27 19:01 54.12675 45.21427 646 ft 21 kts 32°
2026-04-27 19:01 54.12802 45.21574 644 ft 23 kts 37°
2026-04-27 19:02 54.12948 45.21732 639 ft 26 kts 33°
2026-04-27 19:02 54.13096 45.21908 641 ft 26 kts 33°
2026-04-27 19:02 54.13248 45.22070 642 ft 27 kts 31°
2026-04-27 19:02 54.13409 45.22233 641 ft 28 kts 35°
2026-04-27 19:03 54.13553 45.22392 641 ft 22 kts
2026-04-27 19:03 54.13628 45.22268 643 ft 15 kts 308°
2026-04-27 19:03 54.13649 45.22225 644 ft 0 kts 309°
2026-04-27 19:04 54.13649 45.22224 644 ft 0 kts 303°
2026-04-27 19:05 54.13651 45.22220 644 ft 4 kts 303°
2026-04-27 19:05 54.13666 45.22179 647 ft 4 kts 300°
2026-04-27 19:05 54.13676 45.22151 646 ft 2 kts 302°
2026-04-27 19:05 54.13681 45.22136 648 ft 1 kts 300°
2026-04-27 19:06 54.13709 45.22064 650 ft 10 kts 302°
2026-04-27 19:06 54.13733 45.21956 650 ft 6 kts 254°
2026-04-27 19:06 54.13727 45.21933 651 ft 5 kts 245°
2026-04-27 19:07 54.13716 45.21909 652 ft 2 kts 238°
2026-04-27 19:07 54.13714 45.21894 652 ft 1 kts 266°
2026-04-27 19:07 54.13717 45.21875 653 ft 6 kts 290°
2026-04-27 19:07 54.13732 45.21848 652 ft 4 kts 321°
2026-04-27 19:08 54.13743 45.21827 653 ft 0 kts 303°